Weather History for KONA - May, 2014

Change the Weather History Date:

Tuesday, May 13, 2014

  Actual Average (KLSE) Record (KLSE)
Temperature  
Mean Temperature 50 °F 59 °F  
Max Temperature 53 °F 70 °F 88 °F (1977)
Min Temperature 48 °F 48 °F 30 °F (1997)
Degree Days  
Heating Degree Days 14 7  
Month to date heating degree days 112  
Since 1 July heating degree days 7064  
Cooling Degree Days 0 1  
Month to date cooling degree days 11  
Year to date cooling degree days 18  
Moisture  
Dew Point 41 °F    
Average Humidity 68    
Maximum Humidity 94    
Minimum Humidity 54    
Precipitation  
Precipitation 0.00 in 0.11 in 1.35 in (2010)
Month to date precipitation 1.45  
Year to date precipitation 9.00  
Snow  
Snow 0.00 in 0.00 in 0.00 in (2002)
Month to date snowfall 0.1  
Since 1 July snowfall 43.4  
Snow Depth -    
Sea Level Pressure  
Sea Level Pressure 30.01 in    
Wind  
Wind Speed 10 mph (WNW)    
Max Wind Speed 16 mph    
Max Gust Speed 23 mph    
Visibility 10 miles    
Events      
T = Trace of Precipitation, MM = Missing Value Source: NWS Daily Summary

Daily Weather History Graph

Daily Weather History Graph

Search for Another Location

Airport or City:

Trip Planner

Search our weather history database for the weather conditions in past years. The results will help you decide how hot, cold, wet, or windy it might be!

Date:

Astronomy

May. 13, 2014 Rise Set
Actual Time 5:42 AM CDT 8:24 PM CDT
Civil Twilight 5:09 AM CDT 8:57 PM CDT
Nautical Twilight 4:27 AM CDT 9:39 PM CDT
Astronomical Twilight 3:39 AM CDT 10:28 PM CDT
Moon 7:23 PM CDT (5/13) 5:03 AM CDT (5/13)
Length of Visible Light 15h 48m
Length of Day
14h 41m
Waxing Gibbous, 99% of the Moon is Illuminated
May 13
Waxing Gibbous
May 14
Full
May 21
Last Quarter
May 28
New
Jun 5
First Quarter

Hourly Weather History & Observations

Time (CDT) Temp. Dew Point Humidity Pressure Visibility Wind Dir Wind Speed Gust Speed Precip Events Conditions
12:15 AM 53.6 °F 50.0 °F 88% 29.80 in 10.0 mi West 10.4 mph 17.3 mph N/A   Overcast
12:35 AM 53.6 °F 50.0 °F 88% 29.81 in 10.0 mi WNW 10.4 mph 17.3 mph N/A   Overcast
1:15 AM 53.6 °F 48.2 °F 82% 29.82 in 10.0 mi WNW 9.2 mph 17.3 mph N/A   Overcast
1:35 AM 53.6 °F 48.2 °F 82% 29.83 in 10.0 mi West 8.1 mph - N/A   Overcast
1:55 AM 53.6 °F 50.0 °F 88% 29.83 in 5.0 mi West 4.6 mph - N/A   Overcast
2:35 AM 51.8 °F 50.0 °F 94% 29.85 in 4.0 mi West 8.1 mph - N/A   Overcast
2:55 AM 51.8 °F 48.2 °F 88% 29.85 in 10.0 mi WNW 11.5 mph - N/A   Overcast
3:15 AM 51.8 °F 48.2 °F 88% 29.86 in 10.0 mi WNW 10.4 mph - N/A   Overcast
3:35 AM 51.8 °F 48.2 °F 88% 29.86 in 10.0 mi WNW 11.5 mph 16.1 mph N/A   Overcast
3:55 AM 51.8 °F 46.4 °F 82% 29.86 in 10.0 mi West 10.4 mph 17.3 mph N/A   Overcast
4:15 AM 50.0 °F 46.4 °F 87% 29.85 in 10.0 mi WNW 11.5 mph 21.9 mph N/A   Overcast
4:35 AM 50.0 °F 44.6 °F 82% 29.86 in 10.0 mi WNW 12.7 mph 18.4 mph N/A   Overcast
4:55 AM 50.0 °F 44.6 °F 82% 29.87 in 10.0 mi WNW 11.5 mph 20.7 mph N/A   Overcast
5:15 AM 50.0 °F 44.6 °F 82% 29.88 in 10.0 mi West 8.1 mph 16.1 mph N/A   Overcast
5:35 AM 50.0 °F 42.8 °F 76% 29.89 in 10.0 mi WNW 9.2 mph 20.7 mph N/A   Overcast
5:55 AM 50.0 °F 42.8 °F 76% 29.89 in 10.0 mi WNW 10.4 mph 20.7 mph N/A   Overcast
6:15 AM 50.0 °F 42.8 °F 76% 29.90 in 10.0 mi WNW 10.4 mph 16.1 mph N/A   Overcast
6:35 AM 50.0 °F 42.8 °F 76% 29.92 in 10.0 mi WNW 9.2 mph - N/A   Overcast
6:55 AM 48.2 °F 42.8 °F 82% 29.93 in 10.0 mi WNW 10.4 mph - N/A   Overcast
7:15 AM 48.2 °F 42.8 °F 82% 29.93 in 10.0 mi NW 10.4 mph - N/A   Overcast
8:15 AM 50.0 °F 42.8 °F 76% 29.95 in 10.0 mi WNW 10.4 mph 16.1 mph N/A   Overcast
8:35 AM 50.0 °F 42.8 °F 76% 29.96 in 10.0 mi WNW 9.2 mph 17.3 mph N/A   Overcast
8:55 AM 50.0 °F 41.0 °F 71% 29.97 in 10.0 mi WNW 10.4 mph 19.6 mph N/A   Overcast
9:15 AM 50.0 °F 39.2 °F 66% 29.97 in 10.0 mi WNW 15.0 mph 23.0 mph N/A   Overcast
9:55 AM 50.0 °F 39.2 °F 66% 29.99 in 10.0 mi NW 11.5 mph 18.4 mph N/A   Overcast
11:34 AM 51.8 °F 41.0 °F 67% 30.02 in 10.0 mi WNW 6.9 mph 16.1 mph N/A   Overcast
11:55 AM 51.8 °F 41.0 °F 67% 30.03 in 10.0 mi WNW 11.5 mph 16.1 mph N/A   Overcast
12:34 PM 51.8 °F 41.0 °F 67% 30.04 in 10.0 mi WNW 12.7 mph 18.4 mph N/A   Overcast
12:55 PM 51.8 °F 41.0 °F 67% 30.04 in 10.0 mi NW 13.8 mph 19.6 mph N/A   Overcast
1:15 PM 51.8 °F 41.0 °F 67% 30.05 in 10.0 mi WNW 10.4 mph 16.1 mph N/A   Overcast
1:34 PM 51.8 °F 39.2 °F 62% 30.05 in 10.0 mi WNW 13.8 mph 19.6 mph N/A   Overcast
1:55 PM 51.8 °F 41.0 °F 67% 30.06 in 10.0 mi WNW 12.7 mph 16.1 mph N/A   Overcast
2:15 PM 53.6 °F 41.0 °F 62% 30.06 in 10.0 mi NNW 9.2 mph 18.4 mph N/A   Overcast
2:35 PM 51.8 °F 39.2 °F 62% 30.07 in 10.0 mi WNW 12.7 mph 17.3 mph N/A   Overcast
2:55 PM 53.6 °F 41.0 °F 62% 30.07 in 10.0 mi WNW 11.5 mph 18.4 mph N/A   Overcast
3:15 PM 53.6 °F 41.0 °F 62% 30.07 in 10.0 mi WNW 10.4 mph 23.0 mph N/A   Overcast
3:55 PM 53.6 °F 39.2 °F 58% 30.08 in 10.0 mi NW 9.2 mph - N/A   Overcast
4:15 PM 53.6 °F 39.2 °F 58% 30.08 in 10.0 mi NW 11.5 mph - N/A   Overcast
4:35 PM 53.6 °F 37.4 °F 54% 30.08 in 10.0 mi WNW 13.8 mph 20.7 mph N/A   Overcast
4:55 PM 53.6 °F 41.0 °F 62% 30.09 in 10.0 mi NW 12.7 mph - N/A   Overcast
5:15 PM 53.6 °F 41.0 °F 62% 30.09 in 10.0 mi WNW 10.4 mph 16.1 mph N/A   Overcast
5:35 PM 53.6 °F 39.2 °F 58% 30.10 in 10.0 mi NW 12.7 mph - N/A   Overcast
5:55 PM 53.6 °F 39.2 °F 58% 30.10 in 10.0 mi WNW 12.7 mph - N/A   Overcast
6:15 PM 53.6 °F 39.2 °F 58% 30.10 in 10.0 mi WNW 10.4 mph - N/A   Overcast
6:35 PM 53.6 °F 39.2 °F 58% 30.10 in 10.0 mi WNW 12.7 mph 17.3 mph N/A   Overcast
6:54 PM 53.6 °F 39.2 °F 58% 30.11 in 10.0 mi WNW 10.4 mph 18.4 mph N/A   Overcast
7:15 PM 53.6 °F 39.2 °F 58% 30.11 in 10.0 mi NW 10.4 mph - N/A   Overcast
7:35 PM 53.6 °F 37.4 °F 54% 30.12 in 10.0 mi NW 16.1 mph - N/A   Overcast
7:54 PM 53.6 °F 37.4 °F 54% 30.13 in 10.0 mi WNW 11.5 mph 18.4 mph N/A   Mostly Cloudy
8:15 PM 51.8 °F 37.4 °F 58% 30.14 in 10.0 mi WNW 6.9 mph - N/A   Mostly Cloudy
8:35 PM 51.8 °F 35.6 °F 54% 30.15 in 10.0 mi WNW 5.8 mph - N/A   Mostly Cloudy
8:54 PM 51.8 °F 35.6 °F 54% 30.15 in 10.0 mi NW 6.9 mph - N/A   Overcast
9:15 PM 51.8 °F 35.6 °F 54% 30.16 in 10.0 mi WNW 3.5 mph - N/A   Mostly Cloudy
9:54 PM 51.8 °F 35.6 °F 54% 30.17 in 10.0 mi WNW 4.6 mph - N/A   Overcast
10:15 PM 50.0 °F 35.6 °F 58% 30.18 in 10.0 mi WNW 3.5 mph - N/A   Overcast
10:35 PM 50.0 °F 35.6 °F 58% 30.18 in 10.0 mi WNW 5.8 mph - N/A   Overcast
10:54 PM 51.8 °F 35.6 °F 54% 30.18 in 10.0 mi West 3.5 mph - N/A   Overcast
11:15 PM 51.8 °F 35.6 °F 54% 30.18 in 10.0 mi West 4.6 mph - N/A   Overcast
11:35 PM 51.8 °F 35.6 °F 54% 30.18 in 10.0 mi West 6.9 mph - N/A   Mostly Cloudy
11:55 PM 50.0 °F 35.6 °F 58% 30.19 in 10.0 mi WNW 6.9 mph - N/A   Mostly Cloudy